Retour au catalogue

CZ-6A DEB

ActifPO
NORAD 61497·DEBRIS·🇨🇳 China

Lancé Aug 6, 2024 depuis Taiyuan Satellite Launch Center

Loading…

Prochains Passages (prochaines 24 heures)

TLE

FraisSource: Space-Track

Époque: Sep 13, 2026, 22:34 UTC

1 61497U 24140ABF 26256.94077523  .00002042  00000-0  35217-3 0  9995
2 61497  88.9970 258.8420 0124972 304.8125  54.1381 14.63100448109965

Suivez CZ-6A DEB en temps réel avec AllMySat

Download on the App Store